COSMOS 1275 DEB

Satellite information

Favourite Embed

Satellite Type and Status

DEBRISIN ORBIT

Key statistics

Satellite COSMOS 1275 DEB at a glance.

Uptime

16263

Days in orbit

Revolutions

≈ 14.3

Per day

Orbit

LEO

Low Earth Orbit

Inclination

82.9

Latest

Satellite identification and parameters

Extended collection of information and parameters for COSMOS 1275 DEB.

Object identification

Identified? True

Debris? True

Object name: COSMOS 1275 DEB

International designator: 1981-053AL

Object number (NORAD): 12692

Object ID (CCSDS): 12692

Country: COMMONWEALTH OF INDEPENDENT STATES (CIS)

Current information (Y/N): Y

RCS size: MEDIUM

Orbital parameters

Period: 100.486 minutes

Inclination: 82.8965 deg

SMA: 7159.75 km

Apoapsis: 829.156 km

Periapsis: 734.074 km

RAAN: 187.5531 deg

Eccentricy: 0.00664003

Argument of periapsis: 223.1031 deg

Mean anomaly: 136.4948 deg

Mean motion: 14.33032316 rev/day

Mean motion (dot): 0.0000262 rev/day2

B* drag term: 0.00092818935 1/REarth

Two-line elements (TLE)

Creation date: Dec. 12, 2025, 10:14 a.m.

Reference frame: TEME

Reference center: EARTH

Epoch: Dec. 12, 2025, 12:32 a.m. UTC

TLE line 0: 0 COSMOS 1275 DEB

TLE line 1: 1 12692U 81053AL 25346.02236536 .00002620 00000-0 92819-3 0 9996

TLE line 2: 2 12692 82.8965 187.5531 0066400 223.1031 136.4948 14.33032316291203

Live tracking on map

Real-time ground track for satellite COSMOS 1275 DEB.

In-orbit conjunctions

A list of the most updated potential collisions computed for object COSMOS 1275 DEB.

Target Orbit TCA Probability of collision Miss distance Type
SL-3 R/B LEO 2025-01-23 22:35:04 0.0001334895 667.0 (m) ROCKET BODY
FENGYUN 1C DEB SSO 2024-12-14 18:32:29 0.0001551079 227.0 (m) DEBRIS

Associated space launch

Navigation satellite providing location information for the Tsiklon-B navigation system

COSMOS 1275 DEB was lifted into orbit during the mission ‘Kosmos-3M | Parus 27’, on board a Kosmos-3M space rocket.

The launch took place on June 4, 1981, 3:41 p.m. from 132/2.

For more information about the launch, click the button.

Launch to space Kosmos-3M | Parus 27
Kosmos-3M | Parus 27

Agency: N/A

Status: Launch Successful

Launch date: June 4, 1981, 3:41 p.m. UTC

Rocket: Kosmos-3M

Launch pad: 132/2

Location: Plesetsk Cosmodrome, Russian Federation

...

Latest news about this satellite

There are no fresh news available about this satellite. Check back as we update our databases every day.


Newsletter sign-up

Weekly statistics, charts and insights to help you stay on top of the space industry.